Tracking 30692 objects as of 16-Jun-2025
HD Live streaming from Space Station
objects crossing your sky now

STARLINK-5050

Track STARLINK-5050 now!
10-day predictions
STARLINK-5050 is classified as:


NORAD ID: 53890
Int'l Code: 2022-119E
Perigee: 546.0 km
Apogee: 547.8 km
Inclination: 53.2 °
Period: 95.4 minutes
Semi major axis: 6917 km
RCS: Unknown
Launch date: September 24, 2022
Source: United States (US)
Launch site: AIR FORCE EASTERN TEST RANGE (AFETR)
Your satellite tracking list
Your tracking list is empty




NASA's NSSDC Master Catalog

Two Line Element Set (TLE):
1 53890U 22119E   25167.37345412  .00001238  00000-0  95838-4 0  9991
2 53890  53.2187  44.4432 0001309  88.5422 271.5720 15.08838901151976
Source of the keplerian elements: AFSPC